Beckley, WV

3:31 AM EST on November 12, 2019 (GMT -0500)
Raleigh County Memorial

Weather History for KBKW - July, 2019

Change the Weather History Date:

Monday, July 22, 2019

  Actual Average Record
Temperature  
Mean Temperature 68 °F 71 °F  
Max Temperature 76 °F 80 °F 92 °F (2011)
Min Temperature 60 °F 62 °F 47 °F (1937)
Degree Days  
Heating Degree Days 0 0  
Month to date heating degree days 0 0  
Since 1 June heating degree days 33 39  
Since 1 July heating degree days 0 0  
Cooling Degree Days 3 6  
Month to date cooling degree days 232 132  
Year to date cooling degree days 458 284  
Since 1 June cooling degree days 338 243  
Growing Degree Days 20 (Base 50)    
Moisture  
Dew Point 67 °F    
Average Humidity 89    
Maximum Humidity 93    
Minimum Humidity 84    
Precipitation  
Precipitation 1.66 in 0.16 in 1.93 in (1958)
Month to date precipitation 4.77 3.52  
Year to date precipitation 27.66 24.68  
Sea Level Pressure  
Sea Level Pressure 29.96 in    
Wind  
Wind Speed 8 mph (SW)    
Max Wind Speed 18 mph    
Max Gust Speed 23 mph    
Visibility 6 miles    
Events Fog , Rain , Thunderstorm    
T = Trace of Precipitation, MM = Missing Value Source: NWS Daily Summary

Daily Weather History Graph

Daily Weather History Graph

Search for Another Location

Airport or City:

Astronomy

Jul. 22, 2019 Rise Set
Actual Time 6:19 AM EDT 8:41 PM EDT
Civil Twilight 5:49 AM EDT 9:11 PM EDT
Nautical Twilight 5:12 AM EDT 9:48 PM EDT
Astronomical Twilight 4:32 AM EDT 10:29 PM EDT
Moon No Moon Rise 11:30 AM EDT (7/22)
Length of Visible Light 15h 22m
Length of Day
14h 22m
Waning Gibbous, 72% of the Moon is Illuminated
Jul 22
Waning Gibbous
Jul 24
Last Quarter
Jul 31
New
Aug 7
First Quarter
Aug 15
Full

Hourly Weather History & Observations

Time (EDT) Temp. Dew Point Humidity Pressure Visibility Wind Dir Wind Speed Gust Speed Precip Events Conditions
12:51 AM 71.1 °F 66.9 °F 87% 29.95 in 10.0 mi South 4.6 mph - N/A   Overcast
1:51 AM 71.1 °F 66.9 °F 87% 29.94 in 10.0 mi SSW 4.6 mph - N/A   Mostly Cloudy
2:51 AM 70.0 °F 66.0 °F 87% 29.92 in 10.0 mi SSW 5.8 mph - N/A   Clear
3:51 AM 69.1 °F 66.0 °F 90% 29.90 in 10.0 mi South 4.6 mph - N/A   Clear
4:51 AM 69.1 °F 66.0 °F 90% 29.90 in 10.0 mi SSW 3.5 mph - N/A   Clear
5:51 AM 70.0 °F 66.0 °F 87% 29.91 in 10.0 mi SSW 4.6 mph - N/A   Clear
6:15 AM 70.0 °F 66.9 °F 90% 30.02 in 10.0 mi South 4.6 mph - N/A Thunderstorm Mostly Cloudy
6:30 AM 70.0 °F 66.9 °F 90% 30.02 in 10.0 mi SSW 5.8 mph - N/A   Overcast
6:46 AM 69.8 °F 66.2 °F 88% 30.03 in 5.0 mi West 4.6 mph - 0.00 in Rain Rain
6:51 AM 70.0 °F 66.9 °F 90% 29.94 in 3.0 mi WSW 6.9 mph - 0.01 in Rain Light Rain
6:56 AM 70.0 °F 66.9 °F 90% 30.04 in 1.8 mi WSW 8.1 mph - 0.01 in Rain Rain
6:59 AM 69.1 °F 66.0 °F 90% 30.03 in 0.8 mi West 8.1 mph - 0.05 in Rain Heavy Rain
7:09 AM 69.1 °F 66.0 °F 90% 30.04 in 2.0 mi WSW 4.6 mph - 0.15 in Rain Light Rain
7:20 AM 69.1 °F 66.9 °F 93% 30.03 in 2.5 mi South 4.6 mph - 0.19 in Rain Light Rain
7:27 AM 70.0 °F 68.0 °F 93% 30.03 in 7.0 mi South 5.8 mph - 0.19 in Rain Light Rain
7:51 AM 70.0 °F 66.9 °F 90% 29.94 in 10.0 mi SW 8.1 mph - 0.19 in   Mostly Cloudy
8:36 AM 70.0 °F 66.9 °F 90% 30.03 in 10.0 mi WSW 10.4 mph - 0.00 in   Mostly Cloudy
8:51 AM 70.0 °F 66.9 °F 90% 29.95 in 10.0 mi WSW 8.1 mph - 0.00 in   Mostly Cloudy
9:02 AM 71.1 °F 66.9 °F 87% 30.05 in 10.0 mi WSW 10.4 mph 19.6 mph N/A   Mostly Cloudy
9:19 AM 71.1 °F 66.9 °F 87% 30.05 in 10.0 mi WSW 8.1 mph - 0.00 in Rain Light Rain
9:51 AM 71.1 °F 68.0 °F 90% 29.95 in 10.0 mi WSW 5.8 mph - 0.00 in   Overcast
10:17 AM 71.1 °F 68.0 °F 90% 30.04 in 2.5 mi West 4.6 mph - 0.01 in Rain Light Rain
10:26 AM 71.1 °F 68.0 °F 90% 30.04 in 2.5 mi WSW 5.8 mph - 0.05 in Rain Light Rain
10:30 AM 71.1 °F 68.0 °F 90% 30.04 in 5.0 mi WSW 5.8 mph - 0.05 in Rain Light Rain
10:51 AM 72.0 °F 68.0 °F 87% 29.94 in 10.0 mi WSW 5.8 mph - 0.05 in   Mostly Cloudy
11:41 AM 70.0 °F 66.9 °F 90% 30.04 in 2.5 mi WNW 6.9 mph - 0.01 in Rain Rain
11:43 AM 70.0 °F 66.9 °F 90% 30.03 in 1.8 mi West 5.8 mph - 0.02 in Rain Rain
11:51 AM 70.0 °F 66.0 °F 87% 29.94 in 1.5 mi SW 3.5 mph - 0.06 in Rain Light Rain
11:54 AM 70.0 °F 66.9 °F 90% 30.03 in 3.0 mi SW 4.6 mph - 0.01 in Rain Light Rain
12:27 PM 72.0 °F 68.0 °F 87% 30.02 in 10.0 mi Variable 4.6 mph - 0.01 in   Mostly Cloudy
12:49 PM 71.6 °F 68.0 °F 88% 30.02 in 10.0 mi South 6.9 mph - 0.01 in Rain , Thunderstorm Light Rain
12:51 PM 72.0 °F 68.0 °F 87% 29.92 in 10.0 mi South 4.6 mph - 0.01 in Rain , Thunderstorm Light Rain
1:04 PM 73.0 °F 69.1 °F 87% 30.02 in 10.0 mi South 5.8 mph - 0.00 in   Mostly Cloudy
1:11 PM 73.0 °F 69.1 °F 87% 30.02 in 10.0 mi SW 5.8 mph - 0.00 in   Mostly Cloudy
1:23 PM 75.0 °F 69.1 °F 82% 30.01 in 10.0 mi SSW 8.1 mph - 0.00 in   Mostly Cloudy
1:41 PM 75.0 °F 68.0 °F 79% 30.00 in 10.0 mi SW 6.9 mph - 0.00 in   Mostly Cloudy
1:51 PM 75.0 °F 68.0 °F 79% 29.90 in 10.0 mi SW 6.9 mph - 0.00 in   Overcast
2:23 PM 72.0 °F 68.0 °F 87% 30.00 in 3.0 mi SSW 13.8 mph - 0.01 in Rain Light Rain
2:31 PM 71.1 °F 68.0 °F 90% 30.00 in 2.5 mi SSW 9.2 mph - 0.04 in Rain Light Rain
2:34 PM 69.8 °F 68.0 °F 94% 30.00 in 4.0 mi SSW 8.1 mph - N/A Rain Light Rain
2:41 PM 70.0 °F 66.9 °F 90% 30.00 in 10.0 mi SSW 9.2 mph - 0.05 in Rain Light Rain
2:51 PM 70.0 °F 66.9 °F 90% 29.91 in 10.0 mi SSW 10.4 mph - 0.05 in Rain Light Rain
3:11 PM 70.0 °F 66.9 °F 90% 30.00 in 2.5 mi SSW 12.7 mph - 0.02 in Rain Rain
3:22 PM 69.1 °F 66.9 °F 93% 29.99 in 3.0 mi SSW 9.2 mph - 0.06 in Rain Light Rain
3:31 PM 71.1 °F 68.0 °F 90% 29.98 in 10.0 mi SSW 9.2 mph - 0.06 in Rain Light Rain
3:48 PM 71.6 °F 66.2 °F 83% 29.97 in 10.0 mi SSW 8.1 mph 18.4 mph 0.06 in   Overcast
3:51 PM 71.1 °F 66.9 °F 87% 29.88 in 10.0 mi SW 9.2 mph 18.4 mph 0.06 in   Overcast
4:51 PM 71.1 °F 66.9 °F 87% 29.86 in 8.0 mi SW 11.5 mph - 0.00 in Rain Light Rain
5:13 PM 71.1 °F 68.0 °F 90% 29.95 in 5.0 mi SSW 8.1 mph - 0.02 in Rain Light Rain
5:51 PM 71.1 °F 66.9 °F 87% 29.86 in 4.0 mi SW 6.9 mph - 0.05 in Rain Rain
6:13 PM 70.0 °F 66.9 °F 90% 29.94 in 3.0 mi SSW 10.4 mph - 0.06 in Rain Rain
6:27 PM 70.0 °F 66.9 °F 90% 29.94 in 1.8 mi WSW 6.9 mph - 0.10 in Rain Rain
6:36 PM 70.0 °F 66.9 °F 90% 29.94 in 0.8 mi NW 9.2 mph - 0.27 in Rain Rain
6:39 PM 70.0 °F 66.9 °F 90% 29.94 in 1.0 mi SW 9.2 mph - 0.28 in Rain Light Rain
6:42 PM 70.0 °F 66.9 °F 90% 29.94 in 3.0 mi SW 4.6 mph - 0.28 in Rain Light Rain
6:51 PM 70.0 °F 66.9 °F 90% 29.86 in 4.0 mi WSW 6.9 mph 17.3 mph 0.30 in Rain Light Rain
7:04 PM 70.0 °F 66.9 °F 90% 29.94 in 10.0 mi SSW 6.9 mph - 0.00 in Rain Light Rain
7:09 PM 70.0 °F 66.9 °F 90% 29.95 in 1.2 mi SSW 9.2 mph 17.3 mph 0.00 in Rain Heavy Rain
7:14 PM 70.0 °F 66.9 °F 90% 29.94 in 0.8 mi SW 8.1 mph 17.3 mph 0.15 in Rain Rain
7:20 PM 70.0 °F 66.9 °F 90% 29.94 in 3.0 mi SW 6.9 mph 16.1 mph 0.16 in Rain Light Rain
7:24 PM 70.0 °F 66.9 °F 90% 29.95 in 1.5 mi WSW 10.4 mph 17.3 mph 0.17 in Rain Heavy Rain
7:31 PM 69.1 °F 66.9 °F 93% 29.95 in 0.5 mi WSW 11.5 mph 17.3 mph 0.30 in Fog , Rain Heavy Rain
7:38 PM 69.1 °F 66.9 °F 93% 29.95 in 0.8 mi SW 9.2 mph - 0.44 in Rain Heavy Rain
7:41 PM 69.1 °F 66.9 °F 93% 29.95 in 1.0 mi West 12.7 mph - 0.45 in Rain Light Rain
7:44 PM 69.1 °F 66.9 °F 93% 29.95 in 2.0 mi WSW 11.5 mph - 0.46 in Rain Rain
7:51 PM 69.1 °F 66.0 °F 90% 29.86 in 1.8 mi West 9.2 mph 23.0 mph 0.49 in Rain Rain
7:58 PM 69.1 °F 66.0 °F 90% 29.95 in 3.0 mi WSW 4.6 mph - 0.02 in Rain Light Rain
8:04 PM 69.1 °F 66.0 °F 90% 29.95 in 5.0 mi SW 6.9 mph - 0.02 in Rain , Thunderstorm Light Rain
8:19 PM 69.1 °F 66.9 °F 93% 29.96 in 2.5 mi SW 9.2 mph - 0.06 in Rain Rain
8:27 PM 69.1 °F 66.9 °F 93% 29.96 in 4.0 mi SW 6.9 mph - 0.07 in Rain Light Rain
8:39 PM 69.1 °F 66.0 °F 90% 29.96 in 4.0 mi WSW 9.2 mph - 0.10 in Rain Rain
8:46 PM 68.0 °F 66.2 °F 94% 29.95 in 8.0 mi SSW 9.2 mph - 0.11 in Rain Light Rain
8:51 PM 69.1 °F 66.0 °F 90% 29.86 in 3.0 mi SSW 13.8 mph - 0.11 in Rain Light Rain
8:53 PM 69.1 °F 66.0 °F 90% 29.95 in 2.5 mi SSW 12.7 mph - 0.03 in Rain Heavy Rain
9:08 PM 69.1 °F 66.0 °F 90% 29.95 in 5.0 mi SW 8.1 mph - 0.12 in Rain Light Rain
9:15 PM 68.0 °F 66.0 °F 93% 29.95 in 3.0 mi WSW 9.2 mph - 0.15 in Rain Heavy Rain
9:24 PM 69.1 °F 66.0 °F 90% 29.95 in 6.0 mi West 13.8 mph - 0.16 in Rain Light Rain
9:35 PM 68.0 °F 66.0 °F 93% 29.96 in 2.5 mi WNW 11.5 mph - 0.21 in Rain Light Rain
9:42 PM 68.0 °F 66.0 °F 93% 29.96 in 6.0 mi WNW 9.2 mph - 0.21 in Rain Light Rain
9:51 PM 68.0 °F 66.0 °F 93% 29.88 in 8.0 mi WNW 8.1 mph - 0.22 in Rain Light Rain
10:51 PM 66.9 °F 64.9 °F 93% 29.90 in 2.0 mi NNW 13.8 mph - 0.04 in Rain Light Rain
11:03 PM 66.0 °F 64.0 °F 93% 29.99 in 7.0 mi NNW 11.5 mph - 0.01 in Rain Light Rain
11:51 PM 62.1 °F 59.0 °F 90% 29.94 in 10.0 mi North 11.5 mph - 0.02 in Rain Light Rain